Location: Czu?�w
(50.1404°N, 18.9919°E)
Time: 03:43:16
(UTC+00:00)

Helios 1A Rocket - Pass Details

Date: 27 October 2020
Orbit: 562 x 587 km, 98.3° (Epoch: 24 November)

Event Time Altitude Azimuth Distance (km) Brightness Sun altitude
Rises 17:06:30 0° 168° (SSE) 2,796 6.3 -16.2°
Reaches altitude 10° 17:08:39 10° 170° (S) 1,898 5.5 -16.5°
Maximum altitude 17:12:46 74° 256° (WSW) 608 3.1 -17.2°
Drops below altitude 10° 17:16:53 10° 342° (NNW) 1,900 5.8 -17.9°
Sets 17:19:03 0° 345° (NNW) 2,800 6.6 -18.2°
